Regional Weather Roundup
Issued by NWS

Home | Current Version | Previous Version | Text Only | Print | Product List | Glossary Off
Versions: 1 2 3 4 5 6 7 8 9 10 11 12 13 14 15 16 17 18 19 20 21 22 23 24 25 26 27 28 29 30 31 32 33 34 35 36 37 38 39 40 41 42 43 44 45 46 47 48 49 50

205
ASUS44 KMEG 141300
RWRTN
TENNESSEE HOURLY STATE WEATHER ROUNDUP
NATIONAL WEATHER SERVICE MEMPHIS TN
700 AM CST SUN FEB 14 2016

TNZ002-004-019-021-049-052-054-088>092-141400-
WEST TENNESSEE

CITY           SKY/WX    TMP DP  RH WIND       PRES   REMARKS
MEMPHIS INTL   CLOUDY    35   9  33 SE9       30.21F WCI  28
NWS MEMPHIS      N/A     33 N/A N/A MISG        N/A
JACKSON        CLOUDY    29   8  41 SE10      30.25F WCI  20
DYERSBURG      CLOUDY    28   9  43 E10       30.27F WCI  19
$$

TNZ008-025-027-028-033-062-065-066-141400-
NORTH MIDDLE TENNESSEE

CITY           SKY/WX    TMP DP  RH WIND       PRES   REMARKS
NASHVILLE      CLOUDY    28   7  41 NE7       30.37R WCI  21
CLARKSVILLE    FLURRIES  26  10  50 E12       30.34F WCI  16
CROSSVILLE     CLOUDY    21   4  47 E7        30.28F WCI  12
$$

TNZ061-075-076-078-094-096-097-141400-
SOUTH MIDDLE TENNESSEE

CITY           SKY/WX    TMP DP  RH WIND       PRES   REMARKS
COLUMBIA       CLOUDY    27  12  54 E9        30.29F WCI  17
$$

TNZ017-018-042-046-047-141400-
NORTHEAST TENNESSEE

CITY           SKY/WX    TMP DP  RH WIND       PRES   REMARKS
TRI CITIES     CLOUDY    17   5  59 NE6       30.37S WCI   9
$$

TNZ012-013-036-069-073-074-141400-
CENTRAL EAST TENNESSEE

CITY           SKY/WX    TMP DP  RH WIND       PRES   REMARKS
KNOXVILLE      CLOUDY    22   7  52 NE10      30.37S WCI  11
OAK RIDGE      CLOUDY    23   7  50 VRB5      30.40S WCI  17
$$

TNZ083-085-099-141400-
SOUTHEAST TENNESSEE

CITY           SKY/WX    TMP DP  RH WIND       PRES   REMARKS
CHATTANOOGA    CLOUDY    26   8  46 NE5       30.38R WCI  20
$$

SKY/WX REPORTED AS FAIR MEANS FEW OR NO CLOUDS BELOW
12 THOUSAND FEET.





USA.gov is the U.S. government's official web portal to all federal, state and local government web resources and services.